Location: Harburg
(48.7667°N, 10.6667°E)
Time: 02:47:36
(UTC+00:00)

Cosmos 1025 Rocket - Pass Details

Date: 18 September 2020
Orbit: 595 x 617 km, 82.5° (Epoch: 24 October)

Event Time Altitude Azimuth Distance (km) Brightness Sun altitude
Rises 18:45:26 0° 351° (N) 2,885 6.9 -14.1°
Reaches altitude 10° 18:47:40 10° 353° (N) 1,979 6.0 -14.5°
Maximum altitude 18:52:03 76° 79° (E) 640 2.9 -15.2°
Enters shadow 18:56:08 12° 165° (SSE) 1,853 5.2 -15.8°
